Minden, Australia

3:16 AM AEST on September 27, 2017 (GMT +1000)
Minden

Weather History for WYAMB - October, 2013

Change the Weather History Date:

Thursday, October 31, 2013

  Actual Average Record
Temperature  
Mean Temperature 71 °F -  
Max Temperature 80 °F - - ()
Min Temperature 62 °F - - ()
Cooling Degree Days 6    
Growing Degree Days 21 (Base 50)    
Moisture  
Dew Point 55 °F    
Average Humidity 60    
Maximum Humidity 83    
Minimum Humidity 37    
Precipitation  
Precipitation 0.00 in - - ()
Sea Level Pressure  
Sea Level Pressure 30.08 in    
Wind  
Wind Speed 8 mph ()    
Max Wind Speed 18 mph    
Max Gust Speed -    
Visibility 6.2 miles    
Events      
T = Trace of Precipitation, MM = Missing Value Source: Averaged Metar Reports

Daily Weather History Graph

Daily Weather History Graph

Search for Another Location

Airport or City:

Trip Planner

Search our weather history database for the weather conditions in past years. The results will help you decide how hot, cold, wet, or windy it might be!

Date:

Astronomy

Oct. 31, 2013 Rise Set
Actual Time 4:59 AM AEST 6:07 PM AEST
Civil Twilight 4:35 AM AEST 6:32 PM AEST
Nautical Twilight 4:06 AM AEST 7:01 PM AEST
Astronomical Twilight 3:36 AM AEST 7:31 PM AEST
Moon 2:29 AM AEST (10/31) 2:53 PM AEST (10/31)
Length of Visible Light 13h 57m
Length of Day
13h 08m
Waning Crescent, 14% of the Moon is Illuminated
Oct 31
Waning Crescent
Nov 3
New
Nov 10
First Quarter
Nov 18
Full
Nov 26
Last Quarter

Hourly Weather History & Observations

Time (AEST) Temp. Heat Index Dew Point Humidity Pressure Visibility Wind Dir Wind Speed Gust Speed Precip Events Conditions
12:00 AM 66.2 °F - 59.0 °F 78% 30.06 in 6.2 mi North - - N/A   Overcast
12:30 AM 66.2 °F - 59.0 °F 78% 30.06 in 6.2 mi North - - N/A   Overcast
1:00 AM 66.2 °F - 59.0 °F 78% 30.04 in 6.2 mi North - - N/A   Overcast
1:30 AM 66.2 °F - 59.0 °F 78% 30.04 in 6.2 mi North - - N/A   Overcast
2:00 AM 64.4 °F - 59.0 °F 83% 30.04 in 6.2 mi North - - N/A   Mostly Cloudy
2:30 AM 64.4 °F - 57.2 °F 77% 30.04 in 6.2 mi North - - N/A   Mostly Cloudy
3:00 AM 64.4 °F - 57.2 °F 77% 30.04 in 6.2 mi North - - N/A   Overcast
3:30 AM 64.4 °F - 57.2 °F 77% 30.04 in 6.2 mi North - - N/A   Mostly Cloudy
4:00 AM 64.4 °F - 59.0 °F 83% 30.04 in 6.2 mi North - - N/A   Mostly Cloudy
4:30 AM 62.6 °F - 55.4 °F 77% 30.06 in 6.2 mi North - - N/A   Scattered Clouds
5:00 AM 62.6 °F - 55.4 °F 77% 30.06 in 6.2 mi North - - N/A   Mostly Cloudy
5:30 AM 62.6 °F - 57.2 °F 82% 30.06 in 6.2 mi North - - N/A   Unknown
6:00 AM 64.4 °F - 57.2 °F 77% 30.09 in - Calm Calm - N/A   Clear
6:30 AM 66.2 °F - 57.2 °F 73% 30.09 in - Calm Calm - N/A   Clear
7:00 AM 69.8 °F - 55.4 °F 60% 30.09 in 6.2 mi North - - N/A   Unknown
7:30 AM 71.6 °F - 53.6 °F 53% 30.09 in - North - - N/A   Clear
8:00 AM 73.4 °F - 53.6 °F 50% 30.12 in - North - - N/A   Scattered Clouds
8:30 AM 73.4 °F - 55.4 °F 53% 30.12 in 6.2 mi East 3.5 mph - N/A   Scattered Clouds
9:00 AM 77.0 °F - 53.6 °F 44% 30.12 in 6.2 mi NE 8.1 mph - N/A   Mostly Cloudy
9:30 AM 77.0 °F - 53.6 °F 44% 30.12 in 6.2 mi ENE 8.1 mph - N/A   Mostly Cloudy
10:00 AM 77.0 °F - 53.6 °F 44% 30.09 in 6.2 mi East 9.2 mph - N/A   Scattered Clouds
10:30 AM 75.2 °F - 53.6 °F 47% 30.09 in 6.2 mi ENE 6.9 mph - N/A   Scattered Clouds
11:00 AM 77.0 °F - 53.6 °F 44% 30.09 in 6.2 mi East 9.2 mph - N/A   Mostly Cloudy
11:30 AM 78.8 °F - 51.8 °F 39% 30.06 in 6.2 mi ENE 8.1 mph - N/A   Mostly Cloudy
12:00 PM - - - N/A% 0.00 in - North - - N/A   Unknown
12:30 PM 78.8 °F - 53.6 °F 42% 30.06 in - North - - N/A   Clear
1:00 PM 80.6 °F - 51.8 °F 37% 30.04 in - ENE 9.2 mph - N/A   Clear
1:30 PM 80.6 °F 80.3 °F 53.6 °F 39% 30.04 in - NNE 8.1 mph - N/A   Clear
2:00 PM 80.6 °F 80.3 °F 53.6 °F 39% 30.04 in - ENE 11.5 mph - N/A   Clear
2:30 PM 80.6 °F 80.3 °F 53.6 °F 39% 30.01 in - ENE 16.1 mph - N/A   Clear
3:00 PM 78.8 °F - 53.6 °F 42% 30.01 in - East 15.0 mph - N/A   Clear
3:30 PM 77.0 °F - 53.6 °F 44% 30.01 in - East 18.4 mph - N/A   Clear
4:00 PM 77.0 °F - 55.4 °F 47% 30.04 in 6.2 mi ENE 18.4 mph - N/A   Scattered Clouds
4:30 PM 75.2 °F - 55.4 °F 50% 30.04 in 6.2 mi ENE 18.4 mph - N/A   Scattered Clouds
5:00 PM 75.2 °F - 55.4 °F 50% 30.04 in 6.2 mi East 17.3 mph - N/A   Partly Cloudy
5:30 PM 73.4 °F - 55.4 °F 53% 30.04 in - ENE 18.4 mph - N/A   Clear
6:00 PM 71.6 °F - 55.4 °F 57% 30.06 in - East 18.4 mph - N/A   Clear
6:30 PM 69.8 °F - 55.4 °F 60% 30.09 in - East 16.1 mph - N/A   Clear
7:00 PM 69.8 °F - 53.6 °F 56% 30.09 in - East 16.1 mph - N/A   Clear
7:30 PM 69.8 °F - 55.4 °F 60% 30.12 in - ENE 12.7 mph - N/A   Clear
8:00 PM 68.0 °F - 55.4 °F 64% 30.12 in 6.2 mi East 11.5 mph - N/A   Unknown
8:30 PM 68.0 °F - 55.4 °F 64% 30.12 in 6.2 mi ENE 9.2 mph - N/A   Scattered Clouds
9:00 PM 68.0 °F - 55.4 °F 64% 30.15 in 6.2 mi ENE 9.2 mph - N/A   Overcast
9:30 PM 68.0 °F - 55.4 °F 64% 30.15 in 6.2 mi East 8.1 mph - N/A   Overcast
10:00 PM 68.0 °F - 55.4 °F 64% 30.15 in 6.2 mi East 5.8 mph - N/A   Scattered Clouds
10:30 PM 68.0 °F - 55.4 °F 64% 30.15 in 6.2 mi SE 4.6 mph - N/A   Overcast
11:00 PM 66.2 °F - 55.4 °F 68% 30.15 in 6.2 mi SSE 5.8 mph - N/A   Overcast
11:30 PM 66.2 °F - 55.4 °F 68% 30.15 in 6.2 mi SE 4.6 mph - N/A   Overcast